Weather History for London, United Kingdom

Change the Weather History Date:

Sunday, December 1, 2013

  Actual Average Record
Temperature  
Mean Temperature 41 °F -  
Max Temperature 49 °F 45 °F 57 °F (2001)
Min Temperature 33 °F 36 °F 30 °F (2010)
Degree Days  
Heating Degree Days 24    
Moisture  
Dew Point 39 °F    
Average Humidity 87    
Maximum Humidity 100    
Minimum Humidity 66    
Precipitation  
Precipitation 0.00 in - - ()
Sea Level Pressure  
Sea Level Pressure 30.51 in    
Wind  
Wind Speed 4 mph ()    
Max Wind Speed 8 mph    
Max Gust Speed -    
Visibility 7.3 miles    
Events      
Averages and records for this station are not official NWS values.
T = Trace of Precipitation, MM = Missing Value Source: Averaged Metar Reports

Daily Weather History Graph

Daily Weather History Graph

Search for Another Location

Airport:

Trip Planner

Search our weather history database for the weather conditions in past years. The results will help you decide how hot, cold, wet, or windy it might be!

Date:

Astronomy

Dec. 01, 2013 Rise Set
Actual Time 7:45 AM GMT 3:56 PM GMT
Civil Twilight 7:06 AM GMT 4:35 PM GMT
Nautical Twilight 6:23 AM GMT 5:17 PM GMT
Astronomical Twilight 5:43 AM GMT 5:57 PM GMT
Moon 5:35 AM GMT (12/1) 3:03 PM GMT (12/1)
Length of Visible Light 9h 29m
Length of Day
8h 11m
Waning Crescent, 3% of the Moon is Illuminated
Dec 1
Waning Crescent
Dec 3
New
Dec 9
First Quarter
Dec 17
Full
Dec 25
Last Quarter

Hourly Weather History & Observations

Time (GMT) Temp. Windchill Dew Point Humidity Pressure Visibility Wind Dir Wind Speed Gust Speed Precip Events Conditions
12:00 AM 35 °F - 31 °F 82% 30.48 in 11 mi West 4.6 mph - -   Scattered Clouds
12:20 AM 33.8 °F 29.6 °F 32.0 °F 93% 30.48 in - West 4.6 mph - N/A   Clear
12:50 AM 33.8 °F 29.6 °F 33.8 °F 100% 30.48 in - WSW 4.6 mph - N/A   Clear
1:20 AM 33.8 °F 29.6 °F 33.8 °F 100% 30.45 in 6.2 mi WSW 4.6 mph - N/A   Unknown
1:50 AM 35.6 °F 32.8 °F 33.8 °F 93% 30.48 in 6.2 mi West 3.5 mph - N/A   Mostly Cloudy
2:20 AM 35.6 °F 31.7 °F 33.8 °F 93% 30.48 in 6.2 mi West 4.6 mph - N/A   Mostly Cloudy
2:50 AM 35.6 °F 31.7 °F 33.8 °F 93% 30.48 in 6.2 mi West 4.6 mph - N/A   Mostly Cloudy
3:00 AM 37 °F - 33 °F 80% 30.48 in 10 mi West 4.6 mph - -   Mostly Cloudy
3:20 AM 35.6 °F 31.7 °F 35.6 °F 100% 30.45 in 6.2 mi West 4.6 mph - N/A   Mostly Cloudy
3:50 AM 37.4 °F 32.8 °F 35.6 °F 93% 30.45 in 6.2 mi West 5.8 mph - N/A   Mostly Cloudy
4:20 AM 37.4 °F 31.4 °F 35.6 °F 93% 30.45 in 6.2 mi West 8.1 mph - N/A   Mostly Cloudy
4:50 AM 39.2 °F 35.9 °F 35.6 °F 87% 30.45 in 6.2 mi WNW 4.6 mph - N/A   Mostly Cloudy
5:20 AM 39.2 °F 35.9 °F 37.4 °F 93% 30.45 in 6.2 mi West 4.6 mph - N/A   Mostly Cloudy
5:50 AM 39.2 °F 37.0 °F 37.4 °F 93% 30.45 in 6.2 mi West 3.5 mph - N/A   Mostly Cloudy
6:00 AM 40 °F - 35 °F 78% 30.47 in 12 mi WNW 2.3 mph - -  
6:20 AM 39.2 °F 37.0 °F 37.4 °F 93% 30.48 in 6.2 mi Variable 3.5 mph - N/A   Mostly Cloudy
6:50 AM 41.0 °F 39.0 °F 37.4 °F 87% 30.48 in 6.2 mi West 3.5 mph - N/A   Mostly Cloudy
7:20 AM 41.0 °F 37.1 °F 37.4 °F 87% 30.48 in 6.2 mi WNW 5.8 mph - N/A   Mostly Cloudy
7:50 AM 41.0 °F 38.0 °F 39.2 °F 93% 30.48 in 6.2 mi NW 4.6 mph - N/A   Mostly Cloudy
8:20 AM 41.0 °F 38.0 °F 39.2 °F 93% 30.48 in 6.2 mi NW 4.6 mph - N/A   Mostly Cloudy
8:50 AM 42.8 °F 40.1 °F 39.2 °F 87% 30.48 in 6.2 mi WNW 4.6 mph - N/A   Mostly Cloudy
9:00 AM 42 °F - 38 °F 79% 30.50 in 16 mi WNW 5.8 mph - -   Overcast
9:20 AM 42.8 °F 40.1 °F 39.2 °F 87% 30.51 in 6.2 mi WNW 4.6 mph - N/A   Mostly Cloudy
9:50 AM 42.8 °F 40.1 °F 39.2 °F 87% 30.51 in 6.2 mi WNW 4.6 mph - N/A   Mostly Cloudy
10:20 AM 44.6 °F 42.2 °F 41.0 °F 87% 30.51 in 6.2 mi WNW 4.6 mph - N/A   Mostly Cloudy
10:50 AM 44.6 °F 42.2 °F 41.0 °F 87% 30.51 in 6.2 mi WNW 4.6 mph - N/A   Mostly Cloudy
11:20 AM 46.4 °F 43.5 °F 42.8 °F 87% 30.51 in 6.2 mi WNW 5.8 mph - N/A   Mostly Cloudy
11:50 AM 46.4 °F 44.3 °F 42.8 °F 87% 30.51 in 6.2 mi WNW 4.6 mph - N/A   Mostly Cloudy
12:00 PM 47 °F - 41 °F 72% 30.51 in 19 mi NW 5.8 mph - -   Overcast
12:20 PM 48.2 °F - 42.8 °F 82% 30.51 in 6.2 mi WNW 5.8 mph - N/A   Mostly Cloudy
12:50 PM 48.2 °F - 42.8 °F 82% 30.51 in 6.2 mi WNW 4.6 mph - N/A   Mostly Cloudy
1:20 PM 50.0 °F - 42.8 °F 76% 30.51 in 6.2 mi Variable 3.5 mph - N/A   Mostly Cloudy
1:50 PM 50.0 °F - 42.8 °F 76% 30.48 in 6.2 mi North 5.8 mph - N/A   Mostly Cloudy
2:20 PM 48.2 °F - 42.8 °F 82% 30.51 in 6.2 mi North 4.6 mph - N/A   Mostly Cloudy
2:50 PM 48.2 °F - 42.8 °F 82% 30.51 in 6.2 mi North 3.5 mph - N/A   Scattered Clouds
3:00 PM 49 °F - 41 °F 66% 30.51 in 19 mi North 3.5 mph - -   Mostly Cloudy
3:20 PM 48.2 °F - 42.8 °F 82% 30.51 in 6.2 mi North 2.3 mph - N/A   Partly Cloudy
3:50 PM 46.4 °F 45.2 °F 42.8 °F 87% 30.51 in 6.2 mi Variable 3.5 mph - N/A   Partly Cloudy
4:20 PM 46.4 °F - 41.0 °F 81% 30.51 in 6.2 mi Variable 2.3 mph - N/A   Scattered Clouds
4:50 PM 44.6 °F 43.1 °F 41.0 °F 87% 30.51 in 6.2 mi NE 3.5 mph - N/A   Partly Cloudy
5:20 PM 44.6 °F 43.1 °F 41.0 °F 87% 30.51 in 6.2 mi Variable 3.5 mph - N/A   Partly Cloudy
5:50 PM 44.6 °F 43.1 °F 41.0 °F 87% 30.51 in 6.2 mi Variable 3.5 mph - N/A   Mostly Cloudy
6:00 PM 45 °F - 41 °F 79% 30.53 in 11 mi NNE 3.5 mph - -   Mostly Cloudy
6:20 PM 44.6 °F - 41.0 °F 87% 30.54 in 6.2 mi Variable 2.3 mph - N/A   Mostly Cloudy
6:50 PM 44.6 °F 42.2 °F 41.0 °F 87% 30.54 in 6.2 mi North 4.6 mph - N/A   Mostly Cloudy
7:20 PM 44.6 °F 43.1 °F 42.8 °F 93% 30.54 in 6.2 mi Variable 3.5 mph - N/A   Mostly Cloudy
7:50 PM 44.6 °F 43.1 °F 42.8 °F 93% 30.54 in 6.2 mi NE 3.5 mph - N/A   Mostly Cloudy
8:20 PM 44.6 °F - 42.8 °F 93% 30.57 in 6.2 mi Variable 2.3 mph - N/A   Mostly Cloudy
8:50 PM 44.6 °F 43.1 °F 42.8 °F 93% 30.57 in 6.2 mi NE 3.5 mph - N/A   Mostly Cloudy
9:00 PM 46 °F - 41 °F 78% 30.56 in 9 mi NE 2.3 mph - -   Overcast
9:20 PM 46.4 °F 44.3 °F 42.8 °F 87% 30.57 in 6.2 mi NE 4.6 mph - N/A   Overcast
9:50 PM 44.6 °F - 42.8 °F 93% 30.57 in 6.2 mi Variable 2.3 mph - N/A   Mostly Cloudy
10:20 PM 44.6 °F - 42.8 °F 93% 30.57 in 6.2 mi Calm Calm - N/A   Mostly Cloudy
10:50 PM 44.6 °F 43.1 °F 42.8 °F 93% 30.57 in 6.2 mi Variable 3.5 mph - N/A   Mostly Cloudy
11:20 PM 44.6 °F - 42.8 °F 93% 30.57 in 6.2 mi Variable 2.3 mph - N/A   Mostly Cloudy
11:50 PM 44.6 °F 43.1 °F 42.8 °F 93% 30.57 in 6.2 mi NNE 3.5 mph - N/A   Mostly Cloudy